This is the latest recevied weather packets stored in our database for station/object KC4GS-13. If no packets are shown the sender has not sent any weather packets the latest 10 day(s).
| Time | Temp. | Humidity | Pressure | Rain* | Wind** | Luminosity | Snow |
|---|---|---|---|---|---|---|---|
| 1787959810 | 28.33° C | 83% | 1018.1 hPa | 0 mm | - | 26 W/m² | - |
| 1787959500 | 28.33° C | 83% | 1018 hPa | 0 mm | - | 33 W/m² | - |
| 1787959194 | 28.33° C | 82% | 1018.1 hPa | 0 mm | - | 39 W/m² | - |
| 1787958890 | 28.33° C | 82% | 1017.7 hPa | 0 mm | - | 39 W/m² | - |
| 1787958589 | 28.33° C | 82% | 1017.8 hPa | 0 mm | - | 35 W/m² | - |
| 1787958285 | 28.89° C | 81% | 1017.8 hPa | 0 mm | - | 42 W/m² | - |
| 1787957984 | 28.89° C | 80% | 1017.6 hPa | 0 mm | - | 41 W/m² | - |
| 1787957679 | 28.89° C | 79% | 1017.8 hPa | 0 mm | - | 40 W/m² | - |
| 1787957375 | 28.89° C | 79% | 1017.8 hPa | 0 mm | - | 57 W/m² | - |
| 1787957073 | 28.89° C | 79% | 1017.8 hPa | 0 mm | - | 57 W/m² | - |
| 1787956773 | 29.44° C | 78% | 1017.8 hPa | 0 mm | - | 46 W/m² | - |
| 1787956469 | 29.44° C | 77% | 1017.8 hPa | 0 mm | - | 46 W/m² | - |
| 1787956164 | 30° C | 76% | 1018 hPa | 0 mm | - | 45 W/m² | - |
| 1787955863 | 30° C | 76% | 1017.8 hPa | 0 mm | - | 73 W/m² | - |
| 1787955559 | 30.56° C | 75% | 1017.6 hPa | 0 mm | - | 115 W/m² | - |
| 1787955254 | 30° C | 75% | 1017.6 hPa | 0 mm | - | 288 W/m² | - |
| 1787954949 | 30° C | 75% | 1017.6 hPa | 0 mm | - | 104 W/m² | - |
| 1787954645 | 30° C | 74% | 1017.6 hPa | 0 mm | - | 82 W/m² | - |
| 1787954344 | 30° C | 73% | 1017.4 hPa | 0 mm | - | 107 W/m² | - |
| 1787954040 | 30° C | 73% | 1017.6 hPa | 0 mm | - | 196 W/m² | - |
| 1787953738 | 30° C | 75% | 1017.5 hPa | 0 mm | - | 114 W/m² | - |
| 1787953434 | 30° C | 75% | 1017.2 hPa | 0 mm | - | 235 W/m² | - |
| 1787953131 | 30° C | 76% | 1017.5 hPa | 0 mm | - | 323 W/m² | - |
| 1787952830 | 30.56° C | 76% | 1017.6 hPa | 0 mm | - | 141 W/m² | - |
| 1787952530 | 30° C | 76% | 1017.4 hPa | 0 mm | - | 151 W/m² | - |
* Rain latest hour (hover to see other rain measurements)
** Current wind speed in m/s (hover to see current wind gust speed)